Regional Weather Roundup
Issued by NWS

Home | Current Version | Previous Version | Graphics & Text | Print | Product List | Glossary On
Versions: 1 2 3 4 5 6 7 8 9 10 11 12 13 14 15 16 17 18 19 20 21 22 23 24 25 26 27 28 29 30 31 32 33 34 35 36 37 38 39 40 41 42 43 44 45 46 47 48 49 50
000
ASUS43 KFSD 270710
RWRSD

WEATHER ROUNDUP FOR SOUTH DAKOTA
NATIONAL WEATHER SERVICE SIOUX FALLS SD
200 AM CDT THU APR 27 2017

NOTE: "FAIR" INDICATES FEW OR NO CLOUDS BELOW 12,000 FEET WITH NO
SIGNIFICANT WEATHER AND/OR OBSTRUCTIONS TO VISIBILITY.


SDZ001>005-009-010-012>017-270800-
NORTHWEST AND NORTH CENTRAL SOUTH DAKOTA

CITY           SKY/WX    TMP DP  RH WIND       PRES   REMARKS
BUFFALO          N/A     31  23  72 E8        29.62S WCI  23
FAITH            N/A     27  26  96 SE7       29.72R WCI  19
MOBRIDGE       CLOUDY    34  25  69 N6        29.72S WCI  29
$$

SDZ012>016-024>037-041>051-057-063-072>074-270800-
SOUTHWEST AND SOUTH CENTRAL SOUTH DAKOTA

CITY           SKY/WX    TMP DP  RH WIND       PRES   REMARKS
RAPID CTY ARPT CLEAR     27  25  92 W3        29.68F
PIERRE         CLEAR     24  20  84 CALM      29.74R
CUSTER         CLEAR     28  25  88 CALM      29.64S
ELLSWORTH AFB  CLEAR     30  30  99 W7        29.67S WCI  23
PHILIP         CLEAR     29  26  89 NE5       29.72R WCI  24
PINE RIDGE     CLEAR     25  24  96 CALM      29.69F
SPEARFISH      FAIR      28  25  86 S6        29.67S WCI  22
WINNER         FAIR      27  23  85 SW3       29.73S
$$

SDZ004>011-016>023-039-040-270800-
NORTHEAST SOUTH DAKOTA

CITY           SKY/WX    TMP DP  RH WIND       PRES   REMARKS
ABERDEEN       CLOUDY    29  23  78 N12       29.73S WCI  19
WATERTOWN      CLOUDY    27  23  85 N15       29.63F WCI  15
BROOKINGS      CLOUDY    28  24  85 NW16      29.64F WCI  16
SISSETON         N/A     28  26  92 N14       29.66F WCI  17
$$

SDZ017-020-022-023-036>040-048>070-270800-
SOUTHEAST SOUTH DAKOTA

CITY           SKY/WX    TMP DP  RH WIND       PRES   REMARKS
SIOUX FALLS    CLOUDY    31  26  82 NW15      29.66R WCI  20
HURON          CLOUDY    30  24  78 N9        29.72F WCI  22
CHAMBERLAIN    MOCLDY    30  29  94 N3        29.74S
MITCHELL       CLOUDY    32  27  81 N10       29.72F WCI  24
YANKTON        CLOUDY    32  25  74 NW13      29.69F WCI  22
$$

ABBREVIATIONS USED IN REMARKS
   TC - TEMPERATURE IN CELSIUS
  WCI - WIND CHILL INDEX
   HX - HEAT INDEX
  VSB - VISIBILITY





USA.gov is the U.S. government's official web portal to all federal, state and local government web resources and services.